Other Public Products
Issued by NWS Grand Forks, ND

Home | Current Version | Previous Version | Text Only | Print | Product List | Glossary Off
Versions: 1 2 3 4 5 6 7 8 9 10 11 12 13 14 15 16 17 18 19 20 21 22 23 24 25 26 27 28 29 30 31 32 33 34 35 36 37 38 39 40 41 42 43 44 45 46 47 48 49 50

000
FPUS83 KFGF 212331
OPUFGF
PRAIRIE TO PINES WEATHER ROUNDUP
NATIONAL WEATHER SERVICE EASTERN NORTH DAKOTA/GRAND FORKS ND
600 PM CDT FRI JUL 21 2017

 **SATELLITE DATA USED TO AUGMENT SKY COVER AT AUTOMATED STATIONS**
 *****  WEATHER ACROSS EASTERN NORTH DAKOTA  *****

CITY           SKY/WX    TMP DP  RH WIND       PRES   REMARKS
GRAND FORKS    FAIR      80  74  81 N8        29.73R
GRAND FORKS AF PTSUNNY   79  72  77 N8        29.74R
GRAND CITY NWS NOT AVBL
BUXTON           N/A     73  68  86 S9          N/A
DEVILS LAKE    FAIR      82  66  58 NW14      29.80R
FARGO          LGT RAIN  77  70  79 N20G31    29.73F
WAHPETON ARPT  FAIR      86  72  62 S10       29.74F HX  92
$$

 *****  WEATHER ACROSS CENTRAL AND WESTERN NORTH DAKOTA  *****

CITY           SKY/WX    TMP DP  RH WIND       PRES   REMARKS
JAMESTOWN      FAIR      81  64  56 NE10      29.79S
BISMARCK       FAIR      91  67  44 NW7       29.79S HX  94
MINOT          FAIR      91  60  35 W5        29.77F HX  90
MINOT AFB      FAIR      88  61  40 W7        29.76F
GARRISON         N/A     85  65  51 S6        29.79F
WILLISTON      FAIR      95  35  12 W20G26    29.79F HX  90
DICKINSON      FAIR      93  52  24 NW16G22   29.82F HX  90
HETTINGER      FAIR      92  58  31 NW17G23   29.86S HX  91
$$

 *****  OTHER OBSERVATIONS NORTHEAST NORTH DAKOTA  *****

CITY           SKY/WX    TMP DP  RH WIND       PRES   REMARKS
WALHALLA       NOT AVBL
LANGDON        FAIR      79  75  89 NE8       29.82R
CAVALIER       FAIR      81  70  69 E9G15     29.75F
GRAFTON        FAIR      81  73  78 NE13      29.76S
CANDO          NOT AVBL
FORT TOTTEN      N/A     82  65  56 NW3       29.95S
ROLLA            N/A     79  73  83 E7        29.82F
RUGBY          NOT AVBL
 ***** THE ABOVE OBSERVATIONS ARE NON NWS ARE NOT QUALITY
        CONTROLLED AND MAY MIS-REPORT RAIN FOR SNOW...
$$

 *****  OTHER OBSERVATIONS SOUTHEAST NORTH DAKOTA *****

CITY           SKY/WX    TMP DP  RH WIND       PRES   REMARKS
COOPERSTOWN    FAIR      73  63  68 SW17G23   29.75R
VALLEY CITY    FAIR      81  64  57 NE8       29.80F
OAKES          NOT AVBL
GWINNER          N/A     90  72  55 CALM      29.74F HX  96
SHEYENNE NWR     N/A     94  69  44 N7        29.95S HX  99
BUFFALO          N/A     76  60  55 NE9         N/A
WYNDMERE       NOT AVBL
 ***** THE ABOVE OBSERVATIONS ARE NON NWS ARE NOT QUALITY
       CONTROLLED AND MAY MIS-REPORT RAIN FOR SNOW...
$$

  *****  WEATHER ACROSS NORTHERN MINNESOTA  *****

CITY           SKY/WX    TMP DP  RH WIND       PRES   REMARKS
FLAG ISLAND    FAIR      72  59  64 NE12      29.84R
WARROAD        FAIR      72  64  78 NE15      29.84R
ROSEAU         FAIR      72  64  78 E15       29.83R
HALLOCK        FAIR      79  66  65 E14G23    29.76S
THF RVR FALLS  CLOUDY    75  69  81 E8        29.78S
HALSTAD          N/A     76  61  60 W17         N/A
FOSSTON        DRIZZLE   70  66  88 E3        29.75F
BAUDETTE       LGT RAIN  72  64  76 E6        29.83R
WASKISH        TSTM      66  64  94 N8        29.89R
CROOKSTON      FAIR      75  70  83 NE7       29.73S
$$
  *****  WEATHER ACROSS CENTRAL AND WEST MINNESOTA  *****

CITY           SKY/WX    TMP DP  RH WIND       PRES   REMARKS
BEMIDJI        FAIR      65  62  90 N3        29.80F
PARK RAPIDS    TSTM      66  64  93 NW18G33   29.87R VSB 3/4
WADENA         PTSUNNY   82  70  65 SW5       29.81R
DETROIT LAKES  RAIN      68  64  88 S10       29.83  VSB 1/2
MOORHEAD       FAIR      81  68  65 NE12G20   29.78R
FERGUS FALLS   FAIR      84  73  70 S8        29.74F HX  91
ELBOW LAKE     FAIR      80  74  82 S12       29.76F HAZE
MORRIS MN      FAIR      88  72  58 S14       29.76F HX  94
STAPLES        PTSUNNY   82  68  61 S6        29.82R
WHEATON        FAIR      84  72  65 S7        29.76F THUNDER
$$
  *****  WEATHER ELSEWHERE ACROSS MINNESOTA  *****

CITY           SKY/WX    TMP DP  RH WIND       PRES   REMARKS
DULUTH         FAIR      74  64  71 E12       29.86R
INTRNTL FALLS  FAIR      72  61  68 E6        29.83S
ELY            FAIR      79  61  53 SW5       29.88R
CLOQUET        FAIR      72  57  60 E13       29.83F
BRAINERD       PTSUNNY   81  70  69 S10       29.79F
HIBBING        TSTM      64  62  93 NW22G39   29.87R VSB 1
ALEXANDRIA     FAIR      82  71  69 S14       29.81F
SAINT CLOUD    CLOUDY    80  73  79 S10       29.81F
MINNEAPOLIS    PTSUNNY   83  66  56 S12       29.83F
$$

  *****  WEATHER ACROSS SOUTH DAKOTA  *****

CITY           SKY/WX    TMP DP  RH WIND       PRES   REMARKS
SIOUX FALLS    PTSUNNY   83  75  77 SE13      29.80F HX  90
BROOKINGS      FAIR      84  72  67 S13       29.81F
WATERTOWN      FAIR      87  73  62 S12       29.79F HX  94
HURON          FAIR      89  72  56 SE12      29.75F HX  96
SISSETON         N/A     89  77  67 SE10      29.73F HX 101
ABERDEEN       FAIR      88  73  61 CALM      29.76S HX  95
MITCHELL       FAIR      88  74  63 SE13      29.77F HX  96
PIERRE         FAIR      97  63  32 NE6       29.73F HX  98
MOBRIDGE       PTSUNNY   93  74  53 N3        29.75S HX 103
RAPID CITY     FAIR      94  48  20 N20G29    29.91S HX  90
$$

  *****  SOME WEATHER IN NEARBY STATES *****

CITY           SKY/WX    TMP DP  RH WIND       PRES   REMARKS
GLASGOW MT     FAIR      87  33  14 MISG      29.87F
GREAT FALLS MT FAIR      86  22   9 W14G24    29.98S
CHEYENNE WY    LGT RAIN  73  51  46 W20G29    30.19R
SCOTTSBLUFF NE FAIR      96  49  20 NE7       29.96F HX  93
OMAHA NE       FAIR     103  71  35 S12       29.73F HX 112
DES MOINES IA  PTSUNNY   97  73  45 S15       29.76F HX 107
DAVENPORT IA   FAIR      85  75  72 S5        29.85S HX  93
CHICAGO IL     CLOUDY    78  70  76 E14       29.90F
EAU CLAIRE WI  FAIR      78  65  63 S12       29.87S
LA CROSSE WI   CLOUDY    74  69  85 SE7       29.86F
$$

  *****  SOME NATIONAL WEATHER *****

CITY           SKY/WX    TMP DP  RH WIND       PRES   REMARKS
LA GUARDIA NY  PTSUNNY   91  68  46 W12       29.84S HX  95
RALEIGH NC     PTSUNNY   93  69  45 CALM      29.95S HX  98
ATLANTA GA     FAIR      90  72  55 SW5       29.99F HX  97
NEW ORLEANS LA PTSUNNY   86  75  69 S7        29.99F HX  95
OKLAHOMA CITY  FAIR     100  61  27 S15       29.90F HX 101
ALBUQUERQUE NM FAIR      88  51  28 SW9G17    30.08F
SALT LAKE CITY FAIR      96  47  18 N15       29.99F HX  92
LOS ANGELES CA FAIR      75  65  70 W16       29.90F
BOISE ID       FAIR      93  39  15 N15G21    30.00F
SEATTLE WA     PTSUNNY   77  52  41 SW8       30.13F
$$

*** WEATHER ACROSS MANITOBA...SASKATCHEWAN AND ONTARIO ***
                ***ONTARIO***

CITY           SKY/WX    TMP DP  RH WIND       PRES   REMARKS
GERALDTON      PTSUNNY   73  50  43 VRB2      29.92F
THUNDER BAY    PTSUNNY   75  57  53 CALM      29.88F
SIOUX LOOKOUT  CLOUDY    73  59  60 W6        29.89F
TORONTO        PTSUNNY   82  54  36 NW14      29.92R
BIG TROUT LK   SUNNY     68  39  34 W5        29.94S
PICKLE LAKE    PTSUNNY   72  39  30 N3        29.94F
DRYDEN         PTSUNNY   66  63  88 VRB13     29.87F
KENORA         PTSUNNY   64  61  88 E9        29.87F
$$
                *** MANITOBA***

CITY           SKY/WX    TMP DP  RH WIND       PRES   REMARKS
BRANDON        PTSUNNY   75  66  73 E16       29.80F
DAUPHIN        SUNNY     75  61  60 E16       29.81F
ISLAND LAKE    MOSUNNY   72  41  33 SE6       29.95F
PILOT MOUND      N/A     73  64  73 E9          N/A
THE PAS        PTSUNNY   70  45  40 E13G18    29.88F
THOMPSON       MOSUNNY   75  37  25 SE6       29.92S
WINNIPEG       MOSUNNY   75  61  60 E12G18    29.81S
LYNN LAKE      SUNNY     73  37  27 VRB5      29.92F
CHURCHILL      SUNNY     64  43  45 N5        29.93S
GILLAM         MOSUNNY   73  43  33 W3        29.91F
$$
                ***SASKATCHEWAN***

CITY           SKY/WX    TMP DP  RH WIND       PRES   REMARKS
ESTEVAN        PTSUNNY   84  61  45 NW6       29.79S
KINDERSLEY     MOSUNNY   73  52  46 S8        29.86F
LLOYDMINSTER   CLOUDY    68  52  56 W10       29.85F
PRINCE ALBERT  LGT RAIN  61  59  94 NW8       29.86R
REGINA         MOSUNNY   82  52  34 W21G30    29.79S
YORKTON        MOSUNNY   72  63  73 E18G25    29.71F



USA.gov is the U.S. government's official web portal to all federal, state and local government web resources and services.